Regional Weather Roundup
Issued by NWS Portland, ME

Home | Current Version | Previous Version | Text Only | Print | Product List | Glossary On
Versions: 1 2 3 4 5 6 7 8 9 10 11 12 13 14 15 16 17 18 19 20 21 22 23 24 25 26 27 28 29 30 31 32 33 34 35 36 37 38 39 40 41 42 43 44 45 46 47 48 49 50
000
ASUS41 KGYX 211410
RWRGYX
WEATHER ROUNDUP FOR MAINE AND NEW HAMPSHIRE
NATIONAL WEATHER SERVICE GRAY ME
900 AM EST TUE FEB 21 2017

MEZ002-005-006-010-012-015-018-020-021-024-026-027-029-211500-
MAINE

CITY           SKY/WX    TMP DP  RH WIND       PRES   REMARKS
PORTLAND       MOSUNNY   30  17  58 CALM      30.39F
SANFORD        SUNNY     28  17  63 CALM      30.38F
BAR HARBOR     SUNNY     25  11  55 N7        30.37F
WISCASSET      SUNNY     31  11  43 VRB3      30.39F
ROCKLAND       SUNNY     29  12  49 NE9       30.38S
FRYEBURG       CLOUDY    23  13  65 CALM      30.36F
LEWISTONAUBURN CLOUDY    27  24  89 CALM      30.38F
AUGUSTA        CLOUDY    26  11  52 NE3       30.37S
WATERVILLE     CLOUDY    27  14  58 CALM      30.35S
BANGOR         SUNNY     23  10  57 CALM      30.38S
GREENVILLE       N/A     19   9  65 CALM      30.26S
MILLINOCKET    CLOUDY    21   8  57 CALM      30.36F
HOULTON        CLOUDY    15   9  76 NE5       30.32F
PRESQUE ISLE   CLOUDY    17   6  62 CALM      30.34F
FRENCHVILLE    CLOUDY    13   5  70 CALM      30.28F
CARIBOU        CLOUDY    10   5  80 CALM      30.31F
$$

NHZ002-005-008-009-011-012-014-211500-
NEW HAMPSHIRE

CITY           SKY/WX    TMP DP  RH WIND       PRES   REMARKS
PORTSMOUTH     MOSUNNY   30  15  54 CALM      30.38S
ROCHESTER      SUNNY     29  13  51 CALM      30.37F
NASHUA         SUNNY     29  18  63 CALM      30.39F
MANCHESTER     MOSUNNY   30  15  53 CALM      30.37F
CONCORD        SUNNY     25  15  66 E3        30.38F
LACONIA        SUNNY     29  26  89 MISG      30.36F
PLYMOUTH       FAIR      22  13  69 CALM      30.36F
BERLIN         CLOUDY    14   9  80 CALM      30.31F
WHITEFIELD     CLOUDY    19  12  74 CALM      30.30F
JAFFREY        CLOUDY    27  15  61 CALM      30.33F
KEENE          CLOUDY    27  23  85 NE3       30.37S
LEBANON        CLOUDY    22  16  78 CALM      30.35F
MT WASHINGTON  MOSUNNY   32  -2  23 SE6         N/A
$$

VTZ005-007-008-211500-
VERMONT

CITY           SKY/WX    TMP DP  RH WIND       PRES   REMARKS
ST JOHNSBURY     N/A     16  11  80 MISG      30.34F
MONTPELIER     CLOUDY    17  13  84 CALM      30.33F
BURLINGTON     CLOUDY    29  15  56 S12       30.29F WCI  19
$$

MAZ007-012-024-CTZ003-RIZ002-NYZ038-NYZ072-211500-
SOUTHERN NEW ENGLAND AND NY

CITY           SKY/WX    TMP DP  RH WIND       PRES   REMARKS
BOSTON         MOSUNNY   36  19  50 N6        30.40F
WORCESTER      CLOUDY    32   9  38 E6        30.34S
NANTUCKET      SUNNY     41  31  67 N9        30.37S
PROVIDENCE     PTSUNNY   36  15  42 N5        30.39F
HARTFORD       MOSUNNY   31  15  52 NW5       30.39S
ALBANY         PTSUNNY   27  17  66 CALM      30.37S
NEW YORK CITY  CLOUDY    39  21  48 NE8       30.38F
$$

ANZ081-ANZ082-ANZ150-NHZ014-MEZ023>029-211500-
COASTAL MARINE OBSERVATIONS

STATION/POSITION TIME  TEMP    WIND        PRES    WAVE
                       AIR SEA DIR/SP/G            HT/PER
                 (UTC) (F)     (DEG/KT/KT) (MB)    (FT/S)
MOUNT DESERT ROC 1400   28                 1028.0F
MATINICUS ROCK   1400   28      10/ 13/ 15 1028.1R
ISLE OF SHOALS   1400   33      20/  6/  8 1028.7F
JEFFREYS LEDGE   1306      44                N/A     4/ 6
CASHES LEDGE BUO 1350   33 42              1028.4R   4/ 6
GEORGES BANK BUO 1350   36 42              1025.2F   8/ 7
$$

.............KEY..............
   WCI - WIND CHILL
   TC  - TEMPERATURE IN CELSIUS
   VSB - VISIBILITY IN MILES
   HX  - HEAT INDEX
   FAIR- INDICATES FEW OR NO CLOUDS BELOW 12,000 FT, WITH NO
         SIGNIFICANT WEATHER AND/OR OBSTRUCTIONS TO VISIBILITY.





USA.gov is the U.S. government's official web portal to all federal, state and local government web resources and services.